Location: Gugi
(45.4667°N, 11.1000°E)
Time: 11:02:09
(UTC+00:00)

Cosmos 2278 - Pass Details

Date: 17 November 2019
Orbit: 838 x 855 km, 71.1° (Epoch: 09 December)

Event Time Altitude Azimuth Distance (km) Brightness Sun altitude
Rises 17:04:22 0° 190° (S) 3,387 7.2 -14.1°
Reaches altitude 10° 17:06:50 10° 187° (S) 2,459 6.4 -14.5°
Maximum altitude 17:12:20 56° 110° (ESE) 1,002 3.8 -15.5°
Enters shadow 17:17:00 15° 36° (NE) 2,161 5.4 -16.3°
